Minot, ND

8:27 PM CDT on May 25, 2017 (GMT -0500)
Minot International

Weather History for KMOT - March, 2015

Change the Weather History Date:

Sunday, March 8, 2015

  Actual Average Record
Temperature  
Mean Temperature 35 °F 24 °F  
Max Temperature 45 °F 33 °F 60 °F (1977)
Min Temperature 25 °F 16 °F -19 °F (1951)
Degree Days  
Heating Degree Days 30 41  
Month to date heating degree days 377 336  
Since 1 July heating degree days 7065 6912  
Cooling Degree Days 0 0  
Month to date cooling degree days 0 0  
Year to date cooling degree days 0 0  
Moisture  
Dew Point 25 °F    
Average Humidity 67    
Maximum Humidity 84    
Minimum Humidity 49    
Precipitation  
Precipitation 0.00 in 0.02 in 0.32 in (1979)
Month to date precipitation T 0.15  
Year to date precipitation 0.47 1.06  
Sea Level Pressure  
Sea Level Pressure 30.03 in    
Wind  
Wind Speed 10 mph (SW)    
Max Wind Speed 18 mph    
Max Gust Speed 22 mph    
Visibility 10 miles    
Events      
T = Trace of Precipitation, MM = Missing Value Source: NWS Daily Summary

Daily Weather History Graph

Daily Weather History Graph

Search for Another Location

Airport or City:

Trip Planner

Search our weather history database for the weather conditions in past years. The results will help you decide how hot, cold, wet, or windy it might be!

Date:

Astronomy

Mar. 08, 2015 Rise Set
Actual Time 8:12 AM CDT 7:39 PM CDT
Civil Twilight 7:41 AM CDT 8:10 PM CDT
Nautical Twilight 7:05 AM CDT 8:47 PM CDT
Astronomical Twilight 6:29 AM CDT 9:23 PM CDT
Moon 10:53 PM CDT (3/8) 9:20 AM CDT (3/8)
Length of Visible Light 12h 29m
Length of Day
11h 26m
Waning Gibbous, 92% of the Moon is Illuminated
Mar 8
Waning Gibbous
Mar 13
Last Quarter
Mar 20
New
Mar 27
First Quarter
Apr 4
Full

Hourly Weather History & Observations

Time (CDT) Temp. Windchill Dew Point Humidity Pressure Visibility Wind Dir Wind Speed Gust Speed Precip Events Conditions
12:54 AM 30.9 °F 20.7 °F 25.0 °F 79% 30.11 in 10.0 mi West 13.8 mph - N/A   Clear
1:54 AM 30.0 °F 21.1 °F 25.0 °F 82% 30.11 in 10.0 mi WSW 10.4 mph - N/A   Clear
3:54 AM 27.0 °F 16.7 °F 23.0 °F 85% 30.10 in 10.0 mi SW 11.5 mph - N/A   Clear
4:54 AM 27.0 °F 17.3 °F 23.0 °F 85% 30.10 in 10.0 mi WSW 10.4 mph - N/A   Clear
5:54 AM 28.0 °F 19.3 °F 21.9 °F 78% 30.09 in 10.0 mi WSW 9.2 mph - N/A   Clear
6:54 AM 26.6 °F 17.5 °F 21.2 °F 80% 30.04 in 10.0 mi SW 9.2 mph - N/A   Clear
7:54 AM 25.0 °F 14.8 °F 19.9 °F 81% 30.10 in 10.0 mi SW 10.4 mph - N/A   Clear
8:54 AM 26.1 °F 16.2 °F 21.0 °F 81% 30.09 in 10.0 mi SW 10.4 mph - N/A   Clear
9:54 AM 30.9 °F 21.7 °F 23.0 °F 72% 30.08 in 10.0 mi SW 11.5 mph - N/A   Clear
10:54 AM 34.0 °F 26.0 °F 24.1 °F 67% 30.08 in 10.0 mi SW 10.4 mph - N/A   Clear
11:54 AM 37.9 °F 30.5 °F 25.0 °F 60% 30.08 in 10.0 mi WSW 11.5 mph - N/A   Scattered Clouds
12:54 PM 41.0 °F 33.5 °F 25.0 °F 53% 30.07 in 10.0 mi WSW 13.8 mph - N/A   Overcast
1:54 PM 42.1 °F 36.1 °F 27.0 °F 55% 30.06 in 10.0 mi WSW 10.4 mph - N/A   Scattered Clouds
2:54 PM 44.1 °F 37.7 °F 27.0 °F 51% 30.03 in 10.0 mi SW 12.7 mph - N/A   Mostly Cloudy
3:54 PM 44.1 °F 39.5 °F 26.1 °F 49% 30.00 in 10.0 mi SW 8.1 mph - N/A   Overcast
4:54 PM 44.1 °F 40.8 °F 26.1 °F 49% 29.98 in 10.0 mi South 5.8 mph - N/A   Overcast
5:54 PM 43.0 °F 38.2 °F 28.0 °F 56% 29.96 in 10.0 mi South 8.1 mph - N/A   Overcast
6:54 PM 43.0 °F 38.2 °F 28.0 °F 56% 29.94 in 10.0 mi South 8.1 mph - N/A   Mostly Cloudy
7:54 PM 37.9 °F 34.4 °F 28.0 °F 68% 29.94 in 10.0 mi SE 4.6 mph - N/A   Clear
8:54 PM 37.9 °F 32.1 °F 27.0 °F 65% 29.93 in 10.0 mi SSW 8.1 mph - N/A   Clear
9:54 PM 36.0 °F 28.5 °F 26.1 °F 67% 29.92 in 10.0 mi SW 10.4 mph - N/A   Clear
10:54 PM 37.0 °F 27.4 °F 28.0 °F 70% 29.93 in 10.0 mi West 17.3 mph - N/A   Clear
11:54 PM 34.0 °F 26.0 °F 27.0 °F 75% 29.94 in 10.0 mi WSW 10.4 mph - N/A   Clear
12:54 AM 35.1 °F 25.5 °F 27.0 °F 72% 29.93 in 10.0 mi West 15.0 mph - N/A   Clear